When you browse on this site, cookies collect data to enhance your experience and personalize the content and advertising you see.
Visit our Privacy Policy to learn more. By continuing to use the site, you agree to this use of cookies and data.
  • In Latvia
  • List of Countries
  • For 7 days
  • Water Temperature
  • Weather Map
  • Weather Widgets
  • user-avatar
    Login

    Hourly Weather Zaozere

    Today, 24 August, Saturday

    Time Temperature Precipitation Wind Pressure Humidity
    00:00 +29°C° 0 mm 4 mps 757 mmHg 45%
    01:00 +28°C° 0 mm 4 mps 757 mmHg 46%
    02:00 +28°C° 0 mm 5 mps 757 mmHg 46%
    03:00 +27°C° 0 mm 5 mps 758 mmHg 49%
    04:00 +27°C° 0 mm 5 mps 758 mmHg 51%
    05:00 +26°C° 0 mm 5 mps 758 mmHg 54%
    06:00 +26°C° 0 mm 6 mps 758 mmHg 56%
    07:00 +28°C° 0 mm 6 mps 758 mmHg 50%
    08:00 +30°C° 0 mm 6 mps 758 mmHg 45%
    09:00 +33°C° 0 mm 6 mps 759 mmHg 39%
    10:00 +34°C° 0 mm 6 mps 758 mmHg 35%
    11:00 +36°C° 0 mm 6 mps 758 mmHg 31%
    12:00 +39°C° 0 mm 6 mps 758 mmHg 27%
    13:00 +39°C° 0 mm 6 mps 758 mmHg 27%
    14:00 +39°C° 0 mm 6 mps 758 mmHg 26%
    15:00 +40°C° 0 mm 6 mps 757 mmHg 27%
    16:00 +39°C° 0 mm 6 mps 757 mmHg 29%
    17:00 +38°C° 0 mm 6 mps 757 mmHg 31%
    18:00 +36°C° 0 mm 6 mps 757 mmHg 33%
    19:00 +35°C° 0.1 mm 6 mps 758 mmHg 35%
    20:00 +33°C° 0.1 mm 6 mps 758 mmHg 38%
    21:00 +30°C° 0.1 mm 6 mps 758 mmHg 41%
    22:00 +29°C° 0.2 mm 6 mps 758 mmHg 44%
    23:00 +28°C° 0.2 mm 5 mps 758 mmHg 47%

    Tomorrow, 25 August, Sunday

    Time Temperature Precipitation Wind Pressure Humidity
    00:00 +27°C° 0.2 mm 5 mps 758 mmHg 50%
    01:00 +27°C° 0 mm 5 mps 758 mmHg 53%
    02:00 +26°C° 0 mm 4 mps 758 mmHg 56%
    03:00 +25°C° 0 mm 4 mps 758 mmHg 59%
    04:00 +25°C° 0 mm 4 mps 758 mmHg 60%
    05:00 +25°C° 0 mm 5 mps 758 mmHg 62%
    06:00 +23°C° 0 mm 5 mps 758 mmHg 63%
    07:00 +26°C° 0 mm 5 mps 758 mmHg 58%
    08:00 +27°C° 0 mm 5 mps 759 mmHg 54%
    09:00 +29°C° 0 mm 5 mps 759 mmHg 49%
    10:00 +30°C° 0 mm 5 mps 759 mmHg 45%
    11:00 +33°C° 0 mm 5 mps 759 mmHg 40%
    12:00 +35°C° 0 mm 5 mps 758 mmHg 35%
    13:00 +35°C° 0 mm 5 mps 758 mmHg 34%
    14:00 +36°C° 0 mm 6 mps 758 mmHg 32%
    15:00 +36°C° 0 mm 6 mps 758 mmHg 31%
    16:00 +35°C° 0 mm 6 mps 758 mmHg 33%
    17:00 +34°C° 0 mm 6 mps 758 mmHg 35%
    18:00 +33°C° 0 mm 6 mps 758 mmHg 37%
    19:00 +32°C° 0 mm 6 mps 759 mmHg 40%
    20:00 +30°C° 0 mm 6 mps 759 mmHg 43%
    21:00 +28°C° 0 mm 6 mps 760 mmHg 46%
    22:00 +27°C° 0 mm 6 mps 760 mmHg 43%
    23:00 +26°C° 0 mm 6 mps 760 mmHg 41%

    Day after tomorrow, 26 August, Monday

    Time Temperature Precipitation Wind Pressure Humidity
    00:00 +24°C° 0 mm 6 mps 760 mmHg 39%
    01:00 +24°C° 0 mm 6 mps 761 mmHg 40%
    02:00 +23°C° 0 mm 5 mps 761 mmHg 41%
    03:00 +23°C° 0 mm 5 mps 761 mmHg 42%
    04:00 +22°C° 0 mm 5 mps 761 mmHg 47%
    05:00 +22°C° 0 mm 5 mps 761 mmHg 53%
    06:00 +21°C° 0 mm 5 mps 761 mmHg 58%
    07:00 +22°C° 0 mm 5 mps 762 mmHg 55%
    08:00 +24°C° 0 mm 6 mps 762 mmHg 51%
    09:00 +26°C° 0 mm 6 mps 762 mmHg 47%
    10:00 +28°C° 0 mm 6 mps 762 mmHg 43%
    11:00 +29°C° 0 mm 5 mps 762 mmHg 39%
    12:00 +32°C° 0 mm 5 mps 762 mmHg 35%
    13:00 +32°C° 0 mm 5 mps 762 mmHg 33%
    14:00 +33°C° 0 mm 5 mps 761 mmHg 31%
    15:00 +33°C° 0 mm 5 mps 761 mmHg 29%
    16:00 +32°C° 0 mm 5 mps 761 mmHg 30%
    17:00 +32°C° 0 mm 5 mps 761 mmHg 32%
    18:00 +30°C° 0 mm 5 mps 761 mmHg 33%
    19:00 +28°C° 0 mm 5 mps 761 mmHg 35%
    20:00 +26°C° 0 mm 5 mps 761 mmHg 38%
    21:00 +25°C° 0 mm 4 mps 761 mmHg 40%
    22:00 +23°C° 0 mm 4 mps 761 mmHg 38%
    23:00 +22°C° 0 mm 4 mps 761 mmHg 37%

    27 August, Tuesday

    Time Temperature Precipitation Wind Pressure Humidity
    00:00 +22°C° 0 mm 5 mps 761 mmHg 35%
    01:00 +21°C° 0 mm 4 mps 761 mmHg 38%
    02:00 +20°C° 0 mm 4 mps 761 mmHg 40%
    03:00 +20°C° 0 mm 4 mps 761 mmHg 43%
    04:00 +19°C° 0 mm 4 mps 761 mmHg 45%
    05:00 +19°C° 0 mm 3 mps 760 mmHg 47%
    06:00 +18°C° 0 mm 3 mps 760 mmHg 50%
    07:00 +21°C° 0 mm 3 mps 760 mmHg 44%
    08:00 +23°C° 0 mm 4 mps 760 mmHg 39%
    09:00 +26°C° 0 mm 4 mps 760 mmHg 33%
    10:00 +28°C° 0 mm 3 mps 760 mmHg 31%
    11:00 +29°C° 0 mm 3 mps 759 mmHg 28%
    12:00 +30°C° 0 mm 3 mps 759 mmHg 26%
    13:00 +31°C° 0 mm 2 mps 759 mmHg 24%
    14:00 +31°C° 0 mm 2 mps 758 mmHg 23%
    15:00 +32°C° 0 mm 2 mps 758 mmHg 21%
    16:00 +31°C° 0 mm 3 mps 758 mmHg 22%
    17:00 +32°C° 0 mm 4 mps 757 mmHg 22%
    18:00 +30°C° 0 mm 4 mps 757 mmHg 23%
    19:00 +28°C° 0 mm 4 mps 757 mmHg 26%
    20:00 +26°C° 0 mm 4 mps 757 mmHg 29%
    21:00 +23°C° 0 mm 4 mps 757 mmHg 32%
    22:00 +22°C° 0 mm 3 mps 757 mmHg 35%
    23:00 +21°C° 0 mm 3 mps 758 mmHg 38%

    28 August, Wednesday

    Time Temperature Precipitation Wind Pressure Humidity
    00:00 +20°C° 0 mm 3 mps 758 mmHg 41%
    01:00 +20°C° 0 mm 3 mps 757 mmHg 44%
    02:00 +19°C° 0 mm 3 mps 757 mmHg 46%
    03:00 +18°C° 0 mm 3 mps 757 mmHg 49%
    04:00 +18°C° 0 mm 3 mps 757 mmHg 52%
    05:00 +18°C° 0 mm 3 mps 757 mmHg 55%
    06:00 +18°C° 0 mm 3 mps 757 mmHg 59%
    07:00 +19°C° 0 mm 4 mps 757 mmHg 57%
    08:00 +21°C° 0 mm 4 mps 758 mmHg 55%
    09:00 +23°C° 0 mm 5 mps 758 mmHg 54%
    10:00 +25°C° 0 mm 5 mps 758 mmHg 47%
    11:00 +26°C° 0 mm 5 mps 758 mmHg 40%
    12:00 +27°C° 0 mm 6 mps 758 mmHg 33%
    13:00 +27°C° 0 mm 6 mps 758 mmHg 32%
    14:00 +27°C° 0 mm 6 mps 757 mmHg 31%
    15:00 +27°C° 0 mm 6 mps 757 mmHg 30%
    16:00 +27°C° 0 mm 6 mps 757 mmHg 30%
    17:00 +26°C° 0 mm 6 mps 758 mmHg 29%
    18:00 +25°C° 0 mm 5 mps 758 mmHg 29%
    19:00 +22°C° 0 mm 5 mps 758 mmHg 32%
    20:00 +20°C° 0 mm 4 mps 758 mmHg 36%
    21:00 +18°C° 0 mm 4 mps 759 mmHg 40%
    22:00 +17°C° 0 mm 4 mps 759 mmHg 40%
    23:00 +15°C° 0 mm 4 mps 759 mmHg 40%

    29 August, Thursday

    Time Temperature Precipitation Wind Pressure Humidity
    00:00 +14°C° 0 mm 4 mps 760 mmHg 41%
    01:00 +13°C° 0 mm 4 mps 760 mmHg 45%
    02:00 +12°C° 0 mm 3 mps 760 mmHg 48%
    03:00 +11°C° 0 mm 3 mps 760 mmHg 52%
    04:00 +11°C° 0 mm 3 mps 760 mmHg 54%
    05:00 +10°C° 0 mm 3 mps 761 mmHg 56%
    06:00 +10°C° 0 mm 3 mps 761 mmHg 58%
    07:00 +11°C° 0 mm 4 mps 761 mmHg 53%
    08:00 +13°C° 0 mm 4 mps 761 mmHg 48%
    09:00 +14°C° 0 mm 5 mps 761 mmHg 43%
    10:00 +16°C° 0 mm 5 mps 761 mmHg 38%
    11:00 +17°C° 0 mm 5 mps 761 mmHg 34%
    12:00 +19°C° 0 mm 5 mps 761 mmHg 29%
    13:00 +20°C° 0 mm 5 mps 761 mmHg 29%
    14:00 +21°C° 0 mm 5 mps 761 mmHg 28%
    15:00 +21°C° 0 mm 5 mps 760 mmHg 27%
    16:00 +21°C° 0 mm 5 mps 760 mmHg 28%
    17:00 +21°C° 0 mm 5 mps 760 mmHg 28%
    18:00 +20°C° 0 mm 5 mps 760 mmHg 29%
    19:00 +19°C° 0 mm 5 mps 761 mmHg 34%
    20:00 +17°C° 0 mm 4 mps 761 mmHg 39%
    21:00 +14°C° 0 mm 4 mps 761 mmHg 43%
    22:00 +14°C° 0 mm 4 mps 761 mmHg 46%
    23:00 +13°C° 0 mm 4 mps 761 mmHg 49%
    Show more